<?xml version="1.0" encoding="UTF-8" standalone="no" ?>
<gpx xmlns="http://www.topografix.com/GPX/1/1" xmlns:xsi="http://www.w3.org/2001/XMLSchema-instance" xsi:schemaLocation="http://www.topografix.com/GPX/1/1 http://www.topografix.com/GPX/1/1/gpx.xsd" version="1.1" creator="VisuGPX - https://www.visugpx.com">
  <metadata>
    <name>DIESPACH 67 </name>
    <desc><![CDATA[Reco pour ASL avec auberge.....]]></desc>
  </metadata>
  <trk>
    <name><![CDATA[DIESPACH 67 _1]]></name>
    <trkseg>
      <trkpt lat="48.42083" lon="7.16656">
        <ele>550.8</ele>
        <time>2010-01-01T00:00:00Z</time>
      </trkpt>
      <trkpt lat="48.42083" lon="7.16657">
        <ele>550.7</ele>
        <time>2010-01-01T00:00:00Z</time>
      </trkpt>
      <trkpt lat="48.42085" lon="7.16656">
        <ele>550.7</ele>
        <time>2010-01-01T00:00:00Z</time>
      </trkpt>
      <trkpt lat="48.42093" lon="7.16651">
        <ele>550.9</ele>
        <time>2010-01-01T00:00:00Z</time>
      </trkpt>
      <trkpt lat="48.42087" lon="7.16647">
        <ele>551.3</ele>
        <time>2010-01-01T00:00:00Z</time>
      </trkpt>
      <trkpt lat="48.42083" lon="7.16646">
        <ele>551.5</ele>
        <time>2010-01-01T00:00:00Z</time>
      </trkpt>
      <trkpt lat="48.4208" lon="7.16648">
        <ele>551.4</ele>
        <time>2010-01-01T00:00:00Z</time>
      </trkpt>
      <trkpt lat="48.42073" lon="7.16652">
        <ele>551.2</ele>
        <time>2010-01-01T00:00:00Z</time>
      </trkpt>
      <trkpt lat="48.42064" lon="7.16657">
        <ele>551.1</ele>
        <time>2010-01-01T00:00:00Z</time>
      </trkpt>
      <trkpt lat="48.42057" lon="7.16661">
        <ele>551.2</ele>
        <time>2010-01-01T00:00:00Z</time>
      </trkpt>
      <trkpt lat="48.42049" lon="7.16664">
        <ele>551.1</ele>
        <time>2010-01-01T00:00:00Z</time>
      </trkpt>
      <trkpt lat="48.42045" lon="7.16664">
        <ele>551.1</ele>
        <time>2010-01-01T00:00:00Z</time>
      </trkpt>
      <trkpt lat="48.42035" lon="7.16664">
        <ele>551.1</ele>
        <time>2010-01-01T00:00:00Z</time>
      </trkpt>
      <trkpt lat="48.42026" lon="7.16662">
        <ele>551.2</ele>
        <time>2010-01-01T00:00:00Z</time>
      </trkpt>
      <trkpt lat="48.42017" lon="7.1666">
        <ele>551.2</ele>
        <time>2010-01-01T00:00:00Z</time>
      </trkpt>
      <trkpt lat="48.4201" lon="7.16658">
        <ele>551.3</ele>
        <time>2010-01-01T00:00:00Z</time>
      </trkpt>
      <trkpt lat="48.42005" lon="7.16655">
        <ele>551.4</ele>
        <time>2010-01-01T00:00:00Z</time>
      </trkpt>
      <trkpt lat="48.42" lon="7.16651">
        <ele>551.6</ele>
        <time>2010-01-01T00:00:00Z</time>
      </trkpt>
      <trkpt lat="48.41995" lon="7.16646">
        <ele>551.7</ele>
        <time>2010-01-01T00:00:00Z</time>
      </trkpt>
      <trkpt lat="48.41994" lon="7.16643">
        <ele>551.8</ele>
        <time>2010-01-01T00:00:00Z</time>
      </trkpt>
      <trkpt lat="48.4199" lon="7.16636">
        <ele>552.1</ele>
        <time>2010-01-01T00:00:00Z</time>
      </trkpt>
      <trkpt lat="48.41979" lon="7.16618">
        <ele>552.8</ele>
        <time>2010-01-01T00:00:00Z</time>
      </trkpt>
      <trkpt lat="48.41972" lon="7.16604">
        <ele>553.5</ele>
        <time>2010-01-01T00:00:00Z</time>
      </trkpt>
      <trkpt lat="48.41964" lon="7.16591">
        <ele>554.4</ele>
        <time>2010-01-01T00:00:00Z</time>
      </trkpt>
      <trkpt lat="48.41956" lon="7.1658">
        <ele>555</ele>
        <time>2010-01-01T00:00:00Z</time>
      </trkpt>
      <trkpt lat="48.41945" lon="7.16568">
        <ele>555</ele>
        <time>2010-01-01T00:00:00Z</time>
      </trkpt>
      <trkpt lat="48.41935" lon="7.16557">
        <ele>555</ele>
        <time>2010-01-01T00:00:00Z</time>
      </trkpt>
      <trkpt lat="48.41923" lon="7.16547">
        <ele>555.2</ele>
        <time>2010-01-01T00:00:00Z</time>
      </trkpt>
      <trkpt lat="48.41905" lon="7.16534">
        <ele>555.5</ele>
        <time>2010-01-01T00:00:00Z</time>
      </trkpt>
      <trkpt lat="48.41891" lon="7.16522">
        <ele>555.3</ele>
        <time>2010-01-01T00:00:00Z</time>
      </trkpt>
      <trkpt lat="48.41884" lon="7.16517">
        <ele>555.2</ele>
        <time>2010-01-01T00:00:00Z</time>
      </trkpt>
      <trkpt lat="48.41876" lon="7.16509">
        <ele>555.2</ele>
        <time>2010-01-01T00:00:00Z</time>
      </trkpt>
      <trkpt lat="48.41859" lon="7.16488">
        <ele>554.9</ele>
        <time>2010-01-01T00:00:00Z</time>
      </trkpt>
      <trkpt lat="48.41846" lon="7.16472">
        <ele>554.5</ele>
        <time>2010-01-01T00:00:00Z</time>
      </trkpt>
      <trkpt lat="48.41839" lon="7.16463">
        <ele>554.2</ele>
        <time>2010-01-01T00:00:00Z</time>
      </trkpt>
      <trkpt lat="48.41829" lon="7.16454">
        <ele>553.5</ele>
        <time>2010-01-01T00:00:00Z</time>
      </trkpt>
      <trkpt lat="48.41812" lon="7.16437">
        <ele>551.9</ele>
        <time>2010-01-01T00:00:00Z</time>
      </trkpt>
      <trkpt lat="48.41798" lon="7.16423">
        <ele>551</ele>
        <time>2010-01-01T00:00:00Z</time>
      </trkpt>
      <trkpt lat="48.41798" lon="7.16423">
        <ele>551</ele>
        <time>2010-01-01T00:00:00Z</time>
      </trkpt>
      <trkpt lat="48.41721" lon="7.16363">
        <ele>544.7</ele>
        <time>2010-01-01T00:00:00Z</time>
      </trkpt>
      <trkpt lat="48.41671" lon="7.16326">
        <ele>541.3</ele>
        <time>2010-01-01T00:00:00Z</time>
      </trkpt>
      <trkpt lat="48.41664" lon="7.16313">
        <ele>540.9</ele>
        <time>2010-01-01T00:00:00Z</time>
      </trkpt>
      <trkpt lat="48.41662" lon="7.16297">
        <ele>540.8</ele>
        <time>2010-01-01T00:00:00Z</time>
      </trkpt>
      <trkpt lat="48.41666" lon="7.16267">
        <ele>541.4</ele>
        <time>2010-01-01T00:00:00Z</time>
      </trkpt>
      <trkpt lat="48.41676" lon="7.16246">
        <ele>541.8</ele>
        <time>2010-01-01T00:00:00Z</time>
      </trkpt>
      <trkpt lat="48.41683" lon="7.16228">
        <ele>540.9</ele>
        <time>2010-01-01T00:00:00Z</time>
      </trkpt>
      <trkpt lat="48.4169" lon="7.16215">
        <ele>540.3</ele>
        <time>2010-01-01T00:00:00Z</time>
      </trkpt>
      <trkpt lat="48.41691" lon="7.16194">
        <ele>538.7</ele>
        <time>2010-01-01T00:00:00Z</time>
      </trkpt>
      <trkpt lat="48.41688" lon="7.1618">
        <ele>537.1</ele>
        <time>2010-01-01T00:00:00Z</time>
      </trkpt>
      <trkpt lat="48.41678" lon="7.16158">
        <ele>534.6</ele>
        <time>2010-01-01T00:00:00Z</time>
      </trkpt>
      <trkpt lat="48.41642" lon="7.16096">
        <ele>526.6</ele>
        <time>2010-01-01T00:00:00Z</time>
      </trkpt>
      <trkpt lat="48.41627" lon="7.16063">
        <ele>522.5</ele>
        <time>2010-01-01T00:00:00Z</time>
      </trkpt>
      <trkpt lat="48.41616" lon="7.16045">
        <ele>520.1</ele>
        <time>2010-01-01T00:00:00Z</time>
      </trkpt>
      <trkpt lat="48.41602" lon="7.16018">
        <ele>517.2</ele>
        <time>2010-01-01T00:00:00Z</time>
      </trkpt>
      <trkpt lat="48.41584" lon="7.16005">
        <ele>515.4</ele>
        <time>2010-01-01T00:00:00Z</time>
      </trkpt>
      <trkpt lat="48.41558" lon="7.15991">
        <ele>512.2</ele>
        <time>2010-01-01T00:00:00Z</time>
      </trkpt>
      <trkpt lat="48.41551" lon="7.15983">
        <ele>510.8</ele>
        <time>2010-01-01T00:00:00Z</time>
      </trkpt>
      <trkpt lat="48.41548" lon="7.15972">
        <ele>509.4</ele>
        <time>2010-01-01T00:00:00Z</time>
      </trkpt>
      <trkpt lat="48.41551" lon="7.15961">
        <ele>508.5</ele>
        <time>2010-01-01T00:00:00Z</time>
      </trkpt>
      <trkpt lat="48.41568" lon="7.15937">
        <ele>507.7</ele>
        <time>2010-01-01T00:00:00Z</time>
      </trkpt>
      <trkpt lat="48.41568" lon="7.15937">
        <ele>507.7</ele>
        <time>2010-01-01T00:00:00Z</time>
      </trkpt>
      <trkpt lat="48.41551" lon="7.15961">
        <ele>508.5</ele>
        <time>2010-01-01T00:00:00Z</time>
      </trkpt>
      <trkpt lat="48.41548" lon="7.15972">
        <ele>509.4</ele>
        <time>2010-01-01T00:00:00Z</time>
      </trkpt>
      <trkpt lat="48.41524" lon="7.15952">
        <ele>505.4</ele>
        <time>2010-01-01T00:00:00Z</time>
      </trkpt>
      <trkpt lat="48.41465" lon="7.15941">
        <ele>498.1</ele>
        <time>2010-01-01T00:00:00Z</time>
      </trkpt>
      <trkpt lat="48.41419" lon="7.15945">
        <ele>493.3</ele>
        <time>2010-01-01T00:00:00Z</time>
      </trkpt>
      <trkpt lat="48.41397" lon="7.15972">
        <ele>492.2</ele>
        <time>2010-01-01T00:00:00Z</time>
      </trkpt>
      <trkpt lat="48.41368" lon="7.16003">
        <ele>487.7</ele>
        <time>2010-01-01T00:00:00Z</time>
      </trkpt>
      <trkpt lat="48.41322" lon="7.16051">
        <ele>481.1</ele>
        <time>2010-01-01T00:00:00Z</time>
      </trkpt>
      <trkpt lat="48.41311" lon="7.16083">
        <ele>482.1</ele>
        <time>2010-01-01T00:00:00Z</time>
      </trkpt>
      <trkpt lat="48.4135" lon="7.16118">
        <ele>494.2</ele>
        <time>2010-01-01T00:00:00Z</time>
      </trkpt>
      <trkpt lat="48.41365" lon="7.16145">
        <ele>498</ele>
        <time>2010-01-01T00:00:00Z</time>
      </trkpt>
      <trkpt lat="48.41372" lon="7.16204">
        <ele>499.7</ele>
        <time>2010-01-01T00:00:00Z</time>
      </trkpt>
      <trkpt lat="48.41376" lon="7.16247">
        <ele>499.9</ele>
        <time>2010-01-01T00:00:00Z</time>
      </trkpt>
      <trkpt lat="48.41383" lon="7.16286">
        <ele>500.6</ele>
        <time>2010-01-01T00:00:00Z</time>
      </trkpt>
      <trkpt lat="48.41398" lon="7.16335">
        <ele>503.6</ele>
        <time>2010-01-01T00:00:00Z</time>
      </trkpt>
      <trkpt lat="48.41411" lon="7.1635">
        <ele>506.8</ele>
        <time>2010-01-01T00:00:00Z</time>
      </trkpt>
      <trkpt lat="48.41421" lon="7.16393">
        <ele>509.1</ele>
        <time>2010-01-01T00:00:00Z</time>
      </trkpt>
      <trkpt lat="48.41442" lon="7.16442">
        <ele>512.6</ele>
        <time>2010-01-01T00:00:00Z</time>
      </trkpt>
      <trkpt lat="48.41469" lon="7.16484">
        <ele>511.2</ele>
        <time>2010-01-01T00:00:00Z</time>
      </trkpt>
      <trkpt lat="48.41489" lon="7.16501">
        <ele>508.8</ele>
        <time>2010-01-01T00:00:00Z</time>
      </trkpt>
      <trkpt lat="48.41507" lon="7.16501">
        <ele>508.6</ele>
        <time>2010-01-01T00:00:00Z</time>
      </trkpt>
      <trkpt lat="48.41544" lon="7.16498">
        <ele>507.3</ele>
        <time>2010-01-01T00:00:00Z</time>
      </trkpt>
      <trkpt lat="48.41562" lon="7.165">
        <ele>506.5</ele>
        <time>2010-01-01T00:00:00Z</time>
      </trkpt>
      <trkpt lat="48.41568" lon="7.16514">
        <ele>504.1</ele>
        <time>2010-01-01T00:00:00Z</time>
      </trkpt>
      <trkpt lat="48.41573" lon="7.16529">
        <ele>501.7</ele>
        <time>2010-01-01T00:00:00Z</time>
      </trkpt>
      <trkpt lat="48.41582" lon="7.16567">
        <ele>499.4</ele>
        <time>2010-01-01T00:00:00Z</time>
      </trkpt>
      <trkpt lat="48.41599" lon="7.16641">
        <ele>503.5</ele>
        <time>2010-01-01T00:00:00Z</time>
      </trkpt>
      <trkpt lat="48.41599" lon="7.16641">
        <ele>503.5</ele>
        <time>2010-01-01T00:00:00Z</time>
      </trkpt>
      <trkpt lat="48.41599" lon="7.16641">
        <ele>503.5</ele>
        <time>2010-01-01T00:00:00Z</time>
      </trkpt>
      <trkpt lat="48.41582" lon="7.16567">
        <ele>499.4</ele>
        <time>2010-01-01T00:00:00Z</time>
      </trkpt>
      <trkpt lat="48.41573" lon="7.16529">
        <ele>501.7</ele>
        <time>2010-01-01T00:00:00Z</time>
      </trkpt>
      <trkpt lat="48.41568" lon="7.16514">
        <ele>504.1</ele>
        <time>2010-01-01T00:00:00Z</time>
      </trkpt>
      <trkpt lat="48.41562" lon="7.165">
        <ele>506.5</ele>
        <time>2010-01-01T00:00:00Z</time>
      </trkpt>
      <trkpt lat="48.41544" lon="7.16498">
        <ele>507.3</ele>
        <time>2010-01-01T00:00:00Z</time>
      </trkpt>
      <trkpt lat="48.41507" lon="7.16501">
        <ele>508.6</ele>
        <time>2010-01-01T00:00:00Z</time>
      </trkpt>
      <trkpt lat="48.41489" lon="7.16501">
        <ele>508.8</ele>
        <time>2010-01-01T00:00:00Z</time>
      </trkpt>
      <trkpt lat="48.41469" lon="7.16484">
        <ele>511.2</ele>
        <time>2010-01-01T00:00:00Z</time>
      </trkpt>
      <trkpt lat="48.41442" lon="7.16442">
        <ele>512.6</ele>
        <time>2010-01-01T00:00:00Z</time>
      </trkpt>
      <trkpt lat="48.41421" lon="7.16393">
        <ele>509.1</ele>
        <time>2010-01-01T00:00:00Z</time>
      </trkpt>
      <trkpt lat="48.41411" lon="7.1635">
        <ele>506.8</ele>
        <time>2010-01-01T00:00:00Z</time>
      </trkpt>
      <trkpt lat="48.41398" lon="7.16335">
        <ele>503.6</ele>
        <time>2010-01-01T00:00:00Z</time>
      </trkpt>
      <trkpt lat="48.41383" lon="7.16286">
        <ele>500.6</ele>
        <time>2010-01-01T00:00:00Z</time>
      </trkpt>
      <trkpt lat="48.41376" lon="7.16247">
        <ele>499.9</ele>
        <time>2010-01-01T00:00:00Z</time>
      </trkpt>
      <trkpt lat="48.41372" lon="7.16204">
        <ele>499.7</ele>
        <time>2010-01-01T00:00:00Z</time>
      </trkpt>
      <trkpt lat="48.41365" lon="7.16145">
        <ele>498</ele>
        <time>2010-01-01T00:00:00Z</time>
      </trkpt>
      <trkpt lat="48.4135" lon="7.16118">
        <ele>494.2</ele>
        <time>2010-01-01T00:00:00Z</time>
      </trkpt>
      <trkpt lat="48.41311" lon="7.16083">
        <ele>482.1</ele>
        <time>2010-01-01T00:00:00Z</time>
      </trkpt>
      <trkpt lat="48.41322" lon="7.16051">
        <ele>481.1</ele>
        <time>2010-01-01T00:00:00Z</time>
      </trkpt>
      <trkpt lat="48.41368" lon="7.16003">
        <ele>487.7</ele>
        <time>2010-01-01T00:00:00Z</time>
      </trkpt>
      <trkpt lat="48.41367" lon="7.16001">
        <ele>487.3</ele>
        <time>2010-01-01T00:00:00Z</time>
      </trkpt>
      <trkpt lat="48.41367" lon="7.16001">
        <ele>487.3</ele>
        <time>2010-01-01T00:00:00Z</time>
      </trkpt>
      <trkpt lat="48.41368" lon="7.16003">
        <ele>487.7</ele>
        <time>2010-01-01T00:00:00Z</time>
      </trkpt>
      <trkpt lat="48.41322" lon="7.16051">
        <ele>481.1</ele>
        <time>2010-01-01T00:00:00Z</time>
      </trkpt>
      <trkpt lat="48.41311" lon="7.16083">
        <ele>482.1</ele>
        <time>2010-01-01T00:00:00Z</time>
      </trkpt>
      <trkpt lat="48.4135" lon="7.16118">
        <ele>494.2</ele>
        <time>2010-01-01T00:00:00Z</time>
      </trkpt>
      <trkpt lat="48.41365" lon="7.16145">
        <ele>498</ele>
        <time>2010-01-01T00:00:00Z</time>
      </trkpt>
      <trkpt lat="48.41372" lon="7.16204">
        <ele>499.7</ele>
        <time>2010-01-01T00:00:00Z</time>
      </trkpt>
      <trkpt lat="48.41376" lon="7.16247">
        <ele>499.9</ele>
        <time>2010-01-01T00:00:00Z</time>
      </trkpt>
      <trkpt lat="48.41383" lon="7.16286">
        <ele>500.6</ele>
        <time>2010-01-01T00:00:00Z</time>
      </trkpt>
      <trkpt lat="48.41398" lon="7.16335">
        <ele>503.6</ele>
        <time>2010-01-01T00:00:00Z</time>
      </trkpt>
      <trkpt lat="48.41411" lon="7.1635">
        <ele>506.8</ele>
        <time>2010-01-01T00:00:00Z</time>
      </trkpt>
      <trkpt lat="48.41421" lon="7.16393">
        <ele>509.1</ele>
        <time>2010-01-01T00:00:00Z</time>
      </trkpt>
      <trkpt lat="48.41442" lon="7.16442">
        <ele>512.6</ele>
        <time>2010-01-01T00:00:00Z</time>
      </trkpt>
      <trkpt lat="48.41469" lon="7.16484">
        <ele>511.2</ele>
        <time>2010-01-01T00:00:00Z</time>
      </trkpt>
      <trkpt lat="48.41489" lon="7.16501">
        <ele>508.8</ele>
        <time>2010-01-01T00:00:00Z</time>
      </trkpt>
      <trkpt lat="48.41507" lon="7.16501">
        <ele>508.6</ele>
        <time>2010-01-01T00:00:00Z</time>
      </trkpt>
      <trkpt lat="48.41544" lon="7.16498">
        <ele>507.3</ele>
        <time>2010-01-01T00:00:00Z</time>
      </trkpt>
      <trkpt lat="48.41562" lon="7.165">
        <ele>506.5</ele>
        <time>2010-01-01T00:00:00Z</time>
      </trkpt>
      <trkpt lat="48.41568" lon="7.16514">
        <ele>504.1</ele>
        <time>2010-01-01T00:00:00Z</time>
      </trkpt>
      <trkpt lat="48.41573" lon="7.16529">
        <ele>501.7</ele>
        <time>2010-01-01T00:00:00Z</time>
      </trkpt>
      <trkpt lat="48.41582" lon="7.16567">
        <ele>499.4</ele>
        <time>2010-01-01T00:00:00Z</time>
      </trkpt>
      <trkpt lat="48.41603" lon="7.16658">
        <ele>504.5</ele>
        <time>2010-01-01T00:00:00Z</time>
      </trkpt>
      <trkpt lat="48.41601" lon="7.16674">
        <ele>503.2</ele>
        <time>2010-01-01T00:00:00Z</time>
      </trkpt>
      <trkpt lat="48.41599" lon="7.16695">
        <ele>501.1</ele>
        <time>2010-01-01T00:00:00Z</time>
      </trkpt>
      <trkpt lat="48.41594" lon="7.16744">
        <ele>496.9</ele>
        <time>2010-01-01T00:00:00Z</time>
      </trkpt>
      <trkpt lat="48.41592" lon="7.16774">
        <ele>492.1</ele>
        <time>2010-01-01T00:00:00Z</time>
      </trkpt>
      <trkpt lat="48.41591" lon="7.16797">
        <ele>487.9</ele>
        <time>2010-01-01T00:00:00Z</time>
      </trkpt>
      <trkpt lat="48.41592" lon="7.16812">
        <ele>485.8</ele>
        <time>2010-01-01T00:00:00Z</time>
      </trkpt>
      <trkpt lat="48.41594" lon="7.16824">
        <ele>484.5</ele>
        <time>2010-01-01T00:00:00Z</time>
      </trkpt>
      <trkpt lat="48.41598" lon="7.16839">
        <ele>483.2</ele>
        <time>2010-01-01T00:00:00Z</time>
      </trkpt>
      <trkpt lat="48.41603" lon="7.16851">
        <ele>482.5</ele>
        <time>2010-01-01T00:00:00Z</time>
      </trkpt>
      <trkpt lat="48.41608" lon="7.1686">
        <ele>482.3</ele>
        <time>2010-01-01T00:00:00Z</time>
      </trkpt>
      <trkpt lat="48.41614" lon="7.1687">
        <ele>481.8</ele>
        <time>2010-01-01T00:00:00Z</time>
      </trkpt>
      <trkpt lat="48.41616" lon="7.16875">
        <ele>481.2</ele>
        <time>2010-01-01T00:00:00Z</time>
      </trkpt>
      <trkpt lat="48.41617" lon="7.16879">
        <ele>480.6</ele>
        <time>2010-01-01T00:00:00Z</time>
      </trkpt>
      <trkpt lat="48.41617" lon="7.16884">
        <ele>479.5</ele>
        <time>2010-01-01T00:00:00Z</time>
      </trkpt>
      <trkpt lat="48.41635" lon="7.16893">
        <ele>482.1</ele>
        <time>2010-01-01T00:00:00Z</time>
      </trkpt>
      <trkpt lat="48.41646" lon="7.169">
        <ele>483</ele>
        <time>2010-01-01T00:00:00Z</time>
      </trkpt>
      <trkpt lat="48.41666" lon="7.16913">
        <ele>483.8</ele>
        <time>2010-01-01T00:00:00Z</time>
      </trkpt>
      <trkpt lat="48.41686" lon="7.16925">
        <ele>484.4</ele>
        <time>2010-01-01T00:00:00Z</time>
      </trkpt>
      <trkpt lat="48.41694" lon="7.16927">
        <ele>485.3</ele>
        <time>2010-01-01T00:00:00Z</time>
      </trkpt>
      <trkpt lat="48.41702" lon="7.16929">
        <ele>486.1</ele>
        <time>2010-01-01T00:00:00Z</time>
      </trkpt>
      <trkpt lat="48.4171" lon="7.16929">
        <ele>487.4</ele>
        <time>2010-01-01T00:00:00Z</time>
      </trkpt>
      <trkpt lat="48.41726" lon="7.16928">
        <ele>490.1</ele>
        <time>2010-01-01T00:00:00Z</time>
      </trkpt>
      <trkpt lat="48.41735" lon="7.16927">
        <ele>491.6</ele>
        <time>2010-01-01T00:00:00Z</time>
      </trkpt>
      <trkpt lat="48.41747" lon="7.16927">
        <ele>493.3</ele>
        <time>2010-01-01T00:00:00Z</time>
      </trkpt>
      <trkpt lat="48.41756" lon="7.16929">
        <ele>494.3</ele>
        <time>2010-01-01T00:00:00Z</time>
      </trkpt>
      <trkpt lat="48.41767" lon="7.16932">
        <ele>495.5</ele>
        <time>2010-01-01T00:00:00Z</time>
      </trkpt>
      <trkpt lat="48.41776" lon="7.16935">
        <ele>496.4</ele>
        <time>2010-01-01T00:00:00Z</time>
      </trkpt>
      <trkpt lat="48.41787" lon="7.1694">
        <ele>497.4</ele>
        <time>2010-01-01T00:00:00Z</time>
      </trkpt>
      <trkpt lat="48.41795" lon="7.16947">
        <ele>497.7</ele>
        <time>2010-01-01T00:00:00Z</time>
      </trkpt>
      <trkpt lat="48.41803" lon="7.16955">
        <ele>498</ele>
        <time>2010-01-01T00:00:00Z</time>
      </trkpt>
      <trkpt lat="48.41809" lon="7.16964">
        <ele>497.9</ele>
        <time>2010-01-01T00:00:00Z</time>
      </trkpt>
      <trkpt lat="48.41812" lon="7.16971">
        <ele>497.5</ele>
        <time>2010-01-01T00:00:00Z</time>
      </trkpt>
      <trkpt lat="48.41814" lon="7.16977">
        <ele>497.5</ele>
        <time>2010-01-01T00:00:00Z</time>
      </trkpt>
      <trkpt lat="48.41815" lon="7.16984">
        <ele>497.2</ele>
        <time>2010-01-01T00:00:00Z</time>
      </trkpt>
      <trkpt lat="48.41815" lon="7.16984">
        <ele>497.2</ele>
        <time>2010-01-01T00:00:00Z</time>
      </trkpt>
      <trkpt lat="48.41824" lon="7.16984">
        <ele>499.1</ele>
        <time>2010-01-01T00:00:00Z</time>
      </trkpt>
      <trkpt lat="48.41825" lon="7.16991">
        <ele>498.8</ele>
        <time>2010-01-01T00:00:00Z</time>
      </trkpt>
      <trkpt lat="48.41826" lon="7.16996">
        <ele>498.7</ele>
        <time>2010-01-01T00:00:00Z</time>
      </trkpt>
      <trkpt lat="48.41834" lon="7.17014">
        <ele>498.6</ele>
        <time>2010-01-01T00:00:00Z</time>
      </trkpt>
      <trkpt lat="48.41848" lon="7.17046">
        <ele>498.2</ele>
        <time>2010-01-01T00:00:00Z</time>
      </trkpt>
      <trkpt lat="48.41864" lon="7.17067">
        <ele>499.4</ele>
        <time>2010-01-01T00:00:00Z</time>
      </trkpt>
      <trkpt lat="48.41882" lon="7.17083">
        <ele>501.5</ele>
        <time>2010-01-01T00:00:00Z</time>
      </trkpt>
      <trkpt lat="48.41903" lon="7.17089">
        <ele>503.6</ele>
        <time>2010-01-01T00:00:00Z</time>
      </trkpt>
      <trkpt lat="48.41913" lon="7.17088">
        <ele>504.9</ele>
        <time>2010-01-01T00:00:00Z</time>
      </trkpt>
      <trkpt lat="48.41931" lon="7.17087">
        <ele>507.5</ele>
        <time>2010-01-01T00:00:00Z</time>
      </trkpt>
      <trkpt lat="48.41948" lon="7.17086">
        <ele>509.9</ele>
        <time>2010-01-01T00:00:00Z</time>
      </trkpt>
      <trkpt lat="48.41961" lon="7.17086">
        <ele>511.3</ele>
        <time>2010-01-01T00:00:00Z</time>
      </trkpt>
      <trkpt lat="48.41971" lon="7.17086">
        <ele>512.4</ele>
        <time>2010-01-01T00:00:00Z</time>
      </trkpt>
      <trkpt lat="48.41982" lon="7.17086">
        <ele>513.2</ele>
        <time>2010-01-01T00:00:00Z</time>
      </trkpt>
      <trkpt lat="48.41994" lon="7.17086">
        <ele>514.1</ele>
        <time>2010-01-01T00:00:00Z</time>
      </trkpt>
      <trkpt lat="48.41999" lon="7.17086">
        <ele>514.4</ele>
        <time>2010-01-01T00:00:00Z</time>
      </trkpt>
      <trkpt lat="48.42018" lon="7.17086">
        <ele>515.8</ele>
        <time>2010-01-01T00:00:00Z</time>
      </trkpt>
      <trkpt lat="48.42035" lon="7.17084">
        <ele>516.3</ele>
        <time>2010-01-01T00:00:00Z</time>
      </trkpt>
      <trkpt lat="48.42046" lon="7.17078">
        <ele>516.6</ele>
        <time>2010-01-01T00:00:00Z</time>
      </trkpt>
      <trkpt lat="48.42065" lon="7.17053">
        <ele>520.2</ele>
        <time>2010-01-01T00:00:00Z</time>
      </trkpt>
      <trkpt lat="48.42076" lon="7.17042">
        <ele>522.1</ele>
        <time>2010-01-01T00:00:00Z</time>
      </trkpt>
      <trkpt lat="48.42079" lon="7.1704">
        <ele>522.4</ele>
        <time>2010-01-01T00:00:00Z</time>
      </trkpt>
      <trkpt lat="48.42082" lon="7.17038">
        <ele>522.8</ele>
        <time>2010-01-01T00:00:00Z</time>
      </trkpt>
      <trkpt lat="48.42088" lon="7.17033">
        <ele>523.9</ele>
        <time>2010-01-01T00:00:00Z</time>
      </trkpt>
      <trkpt lat="48.42089" lon="7.1703">
        <ele>524.5</ele>
        <time>2010-01-01T00:00:00Z</time>
      </trkpt>
      <trkpt lat="48.42092" lon="7.17024">
        <ele>525.8</ele>
        <time>2010-01-01T00:00:00Z</time>
      </trkpt>
      <trkpt lat="48.42092" lon="7.17024">
        <ele>525.8</ele>
        <time>2010-01-01T00:00:00Z</time>
      </trkpt>
      <trkpt lat="48.42091" lon="7.17018">
        <ele>527.1</ele>
        <time>2010-01-01T00:00:00Z</time>
      </trkpt>
      <trkpt lat="48.4209" lon="7.17017">
        <ele>527.3</ele>
        <time>2010-01-01T00:00:00Z</time>
      </trkpt>
      <trkpt lat="48.4209" lon="7.17017">
        <ele>527.3</ele>
        <time>2010-01-01T00:00:00Z</time>
      </trkpt>
      <trkpt lat="48.42134" lon="7.1701">
        <ele>529.4</ele>
        <time>2010-01-01T00:00:00Z</time>
      </trkpt>
      <trkpt lat="48.42145" lon="7.17013">
        <ele>528.8</ele>
        <time>2010-01-01T00:00:00Z</time>
      </trkpt>
      <trkpt lat="48.42166" lon="7.17016">
        <ele>528.5</ele>
        <time>2010-01-01T00:00:00Z</time>
      </trkpt>
      <trkpt lat="48.42188" lon="7.17017">
        <ele>530.5</ele>
        <time>2010-01-01T00:00:00Z</time>
      </trkpt>
      <trkpt lat="48.42199" lon="7.17018">
        <ele>531.3</ele>
        <time>2010-01-01T00:00:00Z</time>
      </trkpt>
      <trkpt lat="48.42203" lon="7.17021">
        <ele>531.3</ele>
        <time>2010-01-01T00:00:00Z</time>
      </trkpt>
      <trkpt lat="48.42208" lon="7.17027">
        <ele>531</ele>
        <time>2010-01-01T00:00:00Z</time>
      </trkpt>
      <trkpt lat="48.42209" lon="7.17032">
        <ele>530.8</ele>
        <time>2010-01-01T00:00:00Z</time>
      </trkpt>
      <trkpt lat="48.42208" lon="7.17039">
        <ele>530.1</ele>
        <time>2010-01-01T00:00:00Z</time>
      </trkpt>
      <trkpt lat="48.42206" lon="7.17048">
        <ele>529.1</ele>
        <time>2010-01-01T00:00:00Z</time>
      </trkpt>
      <trkpt lat="48.42199" lon="7.17064">
        <ele>526.2</ele>
        <time>2010-01-01T00:00:00Z</time>
      </trkpt>
      <trkpt lat="48.42193" lon="7.17077">
        <ele>523.3</ele>
        <time>2010-01-01T00:00:00Z</time>
      </trkpt>
      <trkpt lat="48.4219" lon="7.17085">
        <ele>521.7</ele>
        <time>2010-01-01T00:00:00Z</time>
      </trkpt>
      <trkpt lat="48.42188" lon="7.1709">
        <ele>520.8</ele>
        <time>2010-01-01T00:00:00Z</time>
      </trkpt>
      <trkpt lat="48.42183" lon="7.17112">
        <ele>518.3</ele>
        <time>2010-01-01T00:00:00Z</time>
      </trkpt>
      <trkpt lat="48.42176" lon="7.17162">
        <ele>517.2</ele>
        <time>2010-01-01T00:00:00Z</time>
      </trkpt>
      <trkpt lat="48.42172" lon="7.17215">
        <ele>516.2</ele>
        <time>2010-01-01T00:00:00Z</time>
      </trkpt>
      <trkpt lat="48.42171" lon="7.17254">
        <ele>515.3</ele>
        <time>2010-01-01T00:00:00Z</time>
      </trkpt>
      <trkpt lat="48.42174" lon="7.17277">
        <ele>515.4</ele>
        <time>2010-01-01T00:00:00Z</time>
      </trkpt>
      <trkpt lat="48.42181" lon="7.17297">
        <ele>516.3</ele>
        <time>2010-01-01T00:00:00Z</time>
      </trkpt>
      <trkpt lat="48.42188" lon="7.17324">
        <ele>515.8</ele>
        <time>2010-01-01T00:00:00Z</time>
      </trkpt>
      <trkpt lat="48.42194" lon="7.17346">
        <ele>515</ele>
        <time>2010-01-01T00:00:00Z</time>
      </trkpt>
      <trkpt lat="48.42202" lon="7.17368">
        <ele>514.7</ele>
        <time>2010-01-01T00:00:00Z</time>
      </trkpt>
      <trkpt lat="48.42214" lon="7.17401">
        <ele>514.7</ele>
        <time>2010-01-01T00:00:00Z</time>
      </trkpt>
      <trkpt lat="48.42225" lon="7.17432">
        <ele>515.3</ele>
        <time>2010-01-01T00:00:00Z</time>
      </trkpt>
      <trkpt lat="48.42236" lon="7.1747">
        <ele>515.2</ele>
        <time>2010-01-01T00:00:00Z</time>
      </trkpt>
      <trkpt lat="48.42246" lon="7.17506">
        <ele>516</ele>
        <time>2010-01-01T00:00:00Z</time>
      </trkpt>
      <trkpt lat="48.42258" lon="7.1755">
        <ele>517.5</ele>
        <time>2010-01-01T00:00:00Z</time>
      </trkpt>
      <trkpt lat="48.4227" lon="7.17596">
        <ele>519.5</ele>
        <time>2010-01-01T00:00:00Z</time>
      </trkpt>
      <trkpt lat="48.42277" lon="7.17619">
        <ele>521.1</ele>
        <time>2010-01-01T00:00:00Z</time>
      </trkpt>
      <trkpt lat="48.42284" lon="7.17635">
        <ele>521.4</ele>
        <time>2010-01-01T00:00:00Z</time>
      </trkpt>
      <trkpt lat="48.4229" lon="7.17645">
        <ele>521.5</ele>
        <time>2010-01-01T00:00:00Z</time>
      </trkpt>
      <trkpt lat="48.42298" lon="7.17657">
        <ele>521.7</ele>
        <time>2010-01-01T00:00:00Z</time>
      </trkpt>
      <trkpt lat="48.42306" lon="7.17668">
        <ele>522</ele>
        <time>2010-01-01T00:00:00Z</time>
      </trkpt>
      <trkpt lat="48.42315" lon="7.17678">
        <ele>523.1</ele>
        <time>2010-01-01T00:00:00Z</time>
      </trkpt>
      <trkpt lat="48.42318" lon="7.1768">
        <ele>523.5</ele>
        <time>2010-01-01T00:00:00Z</time>
      </trkpt>
      <trkpt lat="48.42324" lon="7.17686">
        <ele>524.1</ele>
        <time>2010-01-01T00:00:00Z</time>
      </trkpt>
      <trkpt lat="48.42327" lon="7.1769">
        <ele>524.3</ele>
        <time>2010-01-01T00:00:00Z</time>
      </trkpt>
      <trkpt lat="48.42329" lon="7.17695">
        <ele>524.2</ele>
        <time>2010-01-01T00:00:00Z</time>
      </trkpt>
      <trkpt lat="48.42336" lon="7.17719">
        <ele>523.1</ele>
        <time>2010-01-01T00:00:00Z</time>
      </trkpt>
      <trkpt lat="48.42344" lon="7.17748">
        <ele>520.8</ele>
        <time>2010-01-01T00:00:00Z</time>
      </trkpt>
      <trkpt lat="48.42351" lon="7.1778">
        <ele>518.2</ele>
        <time>2010-01-01T00:00:00Z</time>
      </trkpt>
      <trkpt lat="48.42355" lon="7.17803">
        <ele>516.4</ele>
        <time>2010-01-01T00:00:00Z</time>
      </trkpt>
      <trkpt lat="48.42367" lon="7.17832">
        <ele>513.9</ele>
        <time>2010-01-01T00:00:00Z</time>
      </trkpt>
      <trkpt lat="48.42384" lon="7.17851">
        <ele>511.9</ele>
        <time>2010-01-01T00:00:00Z</time>
      </trkpt>
      <trkpt lat="48.42408" lon="7.17867">
        <ele>509.4</ele>
        <time>2010-01-01T00:00:00Z</time>
      </trkpt>
      <trkpt lat="48.42426" lon="7.1787">
        <ele>507.9</ele>
        <time>2010-01-01T00:00:00Z</time>
      </trkpt>
      <trkpt lat="48.42441" lon="7.17868">
        <ele>506.8</ele>
        <time>2010-01-01T00:00:00Z</time>
      </trkpt>
      <trkpt lat="48.42445" lon="7.17867">
        <ele>506.5</ele>
        <time>2010-01-01T00:00:00Z</time>
      </trkpt>
      <trkpt lat="48.42453" lon="7.17865">
        <ele>505.8</ele>
        <time>2010-01-01T00:00:00Z</time>
      </trkpt>
      <trkpt lat="48.42459" lon="7.17862">
        <ele>505.4</ele>
        <time>2010-01-01T00:00:00Z</time>
      </trkpt>
      <trkpt lat="48.42468" lon="7.17853">
        <ele>505</ele>
        <time>2010-01-01T00:00:00Z</time>
      </trkpt>
      <trkpt lat="48.4248" lon="7.17845">
        <ele>504.5</ele>
        <time>2010-01-01T00:00:00Z</time>
      </trkpt>
      <trkpt lat="48.42489" lon="7.17839">
        <ele>504.3</ele>
        <time>2010-01-01T00:00:00Z</time>
      </trkpt>
      <trkpt lat="48.42494" lon="7.17837">
        <ele>504.1</ele>
        <time>2010-01-01T00:00:00Z</time>
      </trkpt>
      <trkpt lat="48.42502" lon="7.17835">
        <ele>503.7</ele>
        <time>2010-01-01T00:00:00Z</time>
      </trkpt>
      <trkpt lat="48.42509" lon="7.17835">
        <ele>503.1</ele>
        <time>2010-01-01T00:00:00Z</time>
      </trkpt>
      <trkpt lat="48.42518" lon="7.17835">
        <ele>502.4</ele>
        <time>2010-01-01T00:00:00Z</time>
      </trkpt>
      <trkpt lat="48.42529" lon="7.17839">
        <ele>500.9</ele>
        <time>2010-01-01T00:00:00Z</time>
      </trkpt>
      <trkpt lat="48.42544" lon="7.17842">
        <ele>499.3</ele>
        <time>2010-01-01T00:00:00Z</time>
      </trkpt>
      <trkpt lat="48.42568" lon="7.17842">
        <ele>497.9</ele>
        <time>2010-01-01T00:00:00Z</time>
      </trkpt>
      <trkpt lat="48.42591" lon="7.17839">
        <ele>497.4</ele>
        <time>2010-01-01T00:00:00Z</time>
      </trkpt>
      <trkpt lat="48.42615" lon="7.17832">
        <ele>498.3</ele>
        <time>2010-01-01T00:00:00Z</time>
      </trkpt>
      <trkpt lat="48.42634" lon="7.17821">
        <ele>501.3</ele>
        <time>2010-01-01T00:00:00Z</time>
      </trkpt>
      <trkpt lat="48.42653" lon="7.17808">
        <ele>504.7</ele>
        <time>2010-01-01T00:00:00Z</time>
      </trkpt>
      <trkpt lat="48.42672" lon="7.17793">
        <ele>509.3</ele>
        <time>2010-01-01T00:00:00Z</time>
      </trkpt>
      <trkpt lat="48.42688" lon="7.17783">
        <ele>512.6</ele>
        <time>2010-01-01T00:00:00Z</time>
      </trkpt>
      <trkpt lat="48.42705" lon="7.17774">
        <ele>514.8</ele>
        <time>2010-01-01T00:00:00Z</time>
      </trkpt>
      <trkpt lat="48.42713" lon="7.17772">
        <ele>515.2</ele>
        <time>2010-01-01T00:00:00Z</time>
      </trkpt>
      <trkpt lat="48.4272" lon="7.17773">
        <ele>514.9</ele>
        <time>2010-01-01T00:00:00Z</time>
      </trkpt>
      <trkpt lat="48.42728" lon="7.17776">
        <ele>514.9</ele>
        <time>2010-01-01T00:00:00Z</time>
      </trkpt>
      <trkpt lat="48.42734" lon="7.17782">
        <ele>514.7</ele>
        <time>2010-01-01T00:00:00Z</time>
      </trkpt>
      <trkpt lat="48.42739" lon="7.17791">
        <ele>514.2</ele>
        <time>2010-01-01T00:00:00Z</time>
      </trkpt>
      <trkpt lat="48.42742" lon="7.17805">
        <ele>512.9</ele>
        <time>2010-01-01T00:00:00Z</time>
      </trkpt>
      <trkpt lat="48.42744" lon="7.17822">
        <ele>511.1</ele>
        <time>2010-01-01T00:00:00Z</time>
      </trkpt>
      <trkpt lat="48.42747" lon="7.17845">
        <ele>509.1</ele>
        <time>2010-01-01T00:00:00Z</time>
      </trkpt>
      <trkpt lat="48.42749" lon="7.17864">
        <ele>507.7</ele>
        <time>2010-01-01T00:00:00Z</time>
      </trkpt>
      <trkpt lat="48.42751" lon="7.17877">
        <ele>507.6</ele>
        <time>2010-01-01T00:00:00Z</time>
      </trkpt>
      <trkpt lat="48.42753" lon="7.17887">
        <ele>507.6</ele>
        <time>2010-01-01T00:00:00Z</time>
      </trkpt>
      <trkpt lat="48.42757" lon="7.17897">
        <ele>507.8</ele>
        <time>2010-01-01T00:00:00Z</time>
      </trkpt>
      <trkpt lat="48.42762" lon="7.17908">
        <ele>507.9</ele>
        <time>2010-01-01T00:00:00Z</time>
      </trkpt>
      <trkpt lat="48.4277" lon="7.17919">
        <ele>508</ele>
        <time>2010-01-01T00:00:00Z</time>
      </trkpt>
      <trkpt lat="48.42778" lon="7.1793">
        <ele>508.1</ele>
        <time>2010-01-01T00:00:00Z</time>
      </trkpt>
      <trkpt lat="48.42786" lon="7.17937">
        <ele>508.2</ele>
        <time>2010-01-01T00:00:00Z</time>
      </trkpt>
      <trkpt lat="48.42795" lon="7.17943">
        <ele>508.4</ele>
        <time>2010-01-01T00:00:00Z</time>
      </trkpt>
      <trkpt lat="48.42804" lon="7.17946">
        <ele>508.7</ele>
        <time>2010-01-01T00:00:00Z</time>
      </trkpt>
      <trkpt lat="48.42813" lon="7.17947">
        <ele>507.5</ele>
        <time>2010-01-01T00:00:00Z</time>
      </trkpt>
      <trkpt lat="48.42824" lon="7.17947">
        <ele>505.9</ele>
        <time>2010-01-01T00:00:00Z</time>
      </trkpt>
      <trkpt lat="48.42834" lon="7.17945">
        <ele>504.8</ele>
        <time>2010-01-01T00:00:00Z</time>
      </trkpt>
      <trkpt lat="48.42844" lon="7.17942">
        <ele>504.3</ele>
        <time>2010-01-01T00:00:00Z</time>
      </trkpt>
      <trkpt lat="48.42855" lon="7.17932">
        <ele>505.2</ele>
        <time>2010-01-01T00:00:00Z</time>
      </trkpt>
      <trkpt lat="48.42871" lon="7.1791">
        <ele>508.8</ele>
        <time>2010-01-01T00:00:00Z</time>
      </trkpt>
      <trkpt lat="48.42887" lon="7.17895">
        <ele>511.5</ele>
        <time>2010-01-01T00:00:00Z</time>
      </trkpt>
      <trkpt lat="48.42904" lon="7.17894">
        <ele>511.6</ele>
        <time>2010-01-01T00:00:00Z</time>
      </trkpt>
      <trkpt lat="48.42936" lon="7.179">
        <ele>510.5</ele>
        <time>2010-01-01T00:00:00Z</time>
      </trkpt>
      <trkpt lat="48.42947" lon="7.17911">
        <ele>508.3</ele>
        <time>2010-01-01T00:00:00Z</time>
      </trkpt>
      <trkpt lat="48.42958" lon="7.17929">
        <ele>506.1</ele>
        <time>2010-01-01T00:00:00Z</time>
      </trkpt>
      <trkpt lat="48.42973" lon="7.17947">
        <ele>506.6</ele>
        <time>2010-01-01T00:00:00Z</time>
      </trkpt>
      <trkpt lat="48.42985" lon="7.17969">
        <ele>505.3</ele>
        <time>2010-01-01T00:00:00Z</time>
      </trkpt>
      <trkpt lat="48.42996" lon="7.17998">
        <ele>504.7</ele>
        <time>2010-01-01T00:00:00Z</time>
      </trkpt>
      <trkpt lat="48.43009" lon="7.18025">
        <ele>504.4</ele>
        <time>2010-01-01T00:00:00Z</time>
      </trkpt>
      <trkpt lat="48.43024" lon="7.18052">
        <ele>502.8</ele>
        <time>2010-01-01T00:00:00Z</time>
      </trkpt>
      <trkpt lat="48.43028" lon="7.18056">
        <ele>502.9</ele>
        <time>2010-01-01T00:00:00Z</time>
      </trkpt>
      <trkpt lat="48.43042" lon="7.18073">
        <ele>501.5</ele>
        <time>2010-01-01T00:00:00Z</time>
      </trkpt>
      <trkpt lat="48.43066" lon="7.18086">
        <ele>500.9</ele>
        <time>2010-01-01T00:00:00Z</time>
      </trkpt>
      <trkpt lat="48.43095" lon="7.18089">
        <ele>500.7</ele>
        <time>2010-01-01T00:00:00Z</time>
      </trkpt>
      <trkpt lat="48.43124" lon="7.18088">
        <ele>500</ele>
        <time>2010-01-01T00:00:00Z</time>
      </trkpt>
      <trkpt lat="48.43148" lon="7.18086">
        <ele>498.1</ele>
        <time>2010-01-01T00:00:00Z</time>
      </trkpt>
      <trkpt lat="48.43176" lon="7.18078">
        <ele>495.2</ele>
        <time>2010-01-01T00:00:00Z</time>
      </trkpt>
      <trkpt lat="48.43199" lon="7.18068">
        <ele>494.4</ele>
        <time>2010-01-01T00:00:00Z</time>
      </trkpt>
      <trkpt lat="48.43221" lon="7.18054">
        <ele>493.9</ele>
        <time>2010-01-01T00:00:00Z</time>
      </trkpt>
      <trkpt lat="48.43233" lon="7.18042">
        <ele>495.7</ele>
        <time>2010-01-01T00:00:00Z</time>
      </trkpt>
      <trkpt lat="48.43233" lon="7.18042">
        <ele>495.7</ele>
        <time>2010-01-01T00:00:00Z</time>
      </trkpt>
      <trkpt lat="48.43242" lon="7.18034">
        <ele>496.6</ele>
        <time>2010-01-01T00:00:00Z</time>
      </trkpt>
      <trkpt lat="48.43263" lon="7.18016">
        <ele>497.9</ele>
        <time>2010-01-01T00:00:00Z</time>
      </trkpt>
      <trkpt lat="48.43283" lon="7.18005">
        <ele>496.5</ele>
        <time>2010-01-01T00:00:00Z</time>
      </trkpt>
      <trkpt lat="48.43299" lon="7.17995">
        <ele>494.5</ele>
        <time>2010-01-01T00:00:00Z</time>
      </trkpt>
      <trkpt lat="48.43309" lon="7.17975">
        <ele>493.6</ele>
        <time>2010-01-01T00:00:00Z</time>
      </trkpt>
      <trkpt lat="48.43319" lon="7.17943">
        <ele>493.3</ele>
        <time>2010-01-01T00:00:00Z</time>
      </trkpt>
      <trkpt lat="48.43331" lon="7.17891">
        <ele>492.8</ele>
        <time>2010-01-01T00:00:00Z</time>
      </trkpt>
      <trkpt lat="48.43341" lon="7.17851">
        <ele>491</ele>
        <time>2010-01-01T00:00:00Z</time>
      </trkpt>
      <trkpt lat="48.43352" lon="7.17817">
        <ele>489.3</ele>
        <time>2010-01-01T00:00:00Z</time>
      </trkpt>
      <trkpt lat="48.43358" lon="7.17785">
        <ele>487.3</ele>
        <time>2010-01-01T00:00:00Z</time>
      </trkpt>
      <trkpt lat="48.43358" lon="7.17783">
        <ele>487.2</ele>
        <time>2010-01-01T00:00:00Z</time>
      </trkpt>
      <trkpt lat="48.43358" lon="7.17768">
        <ele>486.3</ele>
        <time>2010-01-01T00:00:00Z</time>
      </trkpt>
      <trkpt lat="48.43351" lon="7.17736">
        <ele>486.3</ele>
        <time>2010-01-01T00:00:00Z</time>
      </trkpt>
      <trkpt lat="48.43345" lon="7.17707">
        <ele>485.6</ele>
        <time>2010-01-01T00:00:00Z</time>
      </trkpt>
      <trkpt lat="48.43335" lon="7.17681">
        <ele>484.6</ele>
        <time>2010-01-01T00:00:00Z</time>
      </trkpt>
      <trkpt lat="48.43318" lon="7.17656">
        <ele>483.9</ele>
        <time>2010-01-01T00:00:00Z</time>
      </trkpt>
      <trkpt lat="48.43298" lon="7.17636">
        <ele>484.3</ele>
        <time>2010-01-01T00:00:00Z</time>
      </trkpt>
      <trkpt lat="48.43264" lon="7.17618">
        <ele>486.7</ele>
        <time>2010-01-01T00:00:00Z</time>
      </trkpt>
      <trkpt lat="48.43221" lon="7.176">
        <ele>488.4</ele>
        <time>2010-01-01T00:00:00Z</time>
      </trkpt>
      <trkpt lat="48.43186" lon="7.17582">
        <ele>488.8</ele>
        <time>2010-01-01T00:00:00Z</time>
      </trkpt>
      <trkpt lat="48.4315" lon="7.17566">
        <ele>489.2</ele>
        <time>2010-01-01T00:00:00Z</time>
      </trkpt>
      <trkpt lat="48.43125" lon="7.17555">
        <ele>489.8</ele>
        <time>2010-01-01T00:00:00Z</time>
      </trkpt>
      <trkpt lat="48.43102" lon="7.17543">
        <ele>490.5</ele>
        <time>2010-01-01T00:00:00Z</time>
      </trkpt>
      <trkpt lat="48.43079" lon="7.17521">
        <ele>489.6</ele>
        <time>2010-01-01T00:00:00Z</time>
      </trkpt>
      <trkpt lat="48.43042" lon="7.17478">
        <ele>490.7</ele>
        <time>2010-01-01T00:00:00Z</time>
      </trkpt>
      <trkpt lat="48.43024" lon="7.17445">
        <ele>490.3</ele>
        <time>2010-01-01T00:00:00Z</time>
      </trkpt>
      <trkpt lat="48.43017" lon="7.17433">
        <ele>490.3</ele>
        <time>2010-01-01T00:00:00Z</time>
      </trkpt>
      <trkpt lat="48.43015" lon="7.17425">
        <ele>489.3</ele>
        <time>2010-01-01T00:00:00Z</time>
      </trkpt>
      <trkpt lat="48.43014" lon="7.17425">
        <ele>489.6</ele>
        <time>2010-01-01T00:00:00Z</time>
      </trkpt>
      <trkpt lat="48.43009" lon="7.17423">
        <ele>490.7</ele>
        <time>2010-01-01T00:00:00Z</time>
      </trkpt>
      <trkpt lat="48.42991" lon="7.17407">
        <ele>492.7</ele>
        <time>2010-01-01T00:00:00Z</time>
      </trkpt>
      <trkpt lat="48.42967" lon="7.17384">
        <ele>494.6</ele>
        <time>2010-01-01T00:00:00Z</time>
      </trkpt>
      <trkpt lat="48.42948" lon="7.17365">
        <ele>495.9</ele>
        <time>2010-01-01T00:00:00Z</time>
      </trkpt>
      <trkpt lat="48.42928" lon="7.17345">
        <ele>500.3</ele>
        <time>2010-01-01T00:00:00Z</time>
      </trkpt>
      <trkpt lat="48.42905" lon="7.17324">
        <ele>503.8</ele>
        <time>2010-01-01T00:00:00Z</time>
      </trkpt>
      <trkpt lat="48.42883" lon="7.17303">
        <ele>506.3</ele>
        <time>2010-01-01T00:00:00Z</time>
      </trkpt>
      <trkpt lat="48.42861" lon="7.17283">
        <ele>509.8</ele>
        <time>2010-01-01T00:00:00Z</time>
      </trkpt>
      <trkpt lat="48.42854" lon="7.17275">
        <ele>510.6</ele>
        <time>2010-01-01T00:00:00Z</time>
      </trkpt>
      <trkpt lat="48.42854" lon="7.17275">
        <ele>510.6</ele>
        <time>2010-01-01T00:00:00Z</time>
      </trkpt>
      <trkpt lat="48.42845" lon="7.17265">
        <ele>511.8</ele>
        <time>2010-01-01T00:00:00Z</time>
      </trkpt>
      <trkpt lat="48.42826" lon="7.17241">
        <ele>514.8</ele>
        <time>2010-01-01T00:00:00Z</time>
      </trkpt>
      <trkpt lat="48.42808" lon="7.1722">
        <ele>519.2</ele>
        <time>2010-01-01T00:00:00Z</time>
      </trkpt>
      <trkpt lat="48.42798" lon="7.17203">
        <ele>521.5</ele>
        <time>2010-01-01T00:00:00Z</time>
      </trkpt>
      <trkpt lat="48.42793" lon="7.17179">
        <ele>521.8</ele>
        <time>2010-01-01T00:00:00Z</time>
      </trkpt>
      <trkpt lat="48.42793" lon="7.17147">
        <ele>521.2</ele>
        <time>2010-01-01T00:00:00Z</time>
      </trkpt>
      <trkpt lat="48.42799" lon="7.17104">
        <ele>523.2</ele>
        <time>2010-01-01T00:00:00Z</time>
      </trkpt>
      <trkpt lat="48.42801" lon="7.17068">
        <ele>525.8</ele>
        <time>2010-01-01T00:00:00Z</time>
      </trkpt>
      <trkpt lat="48.42798" lon="7.17026">
        <ele>530</ele>
        <time>2010-01-01T00:00:00Z</time>
      </trkpt>
      <trkpt lat="48.42785" lon="7.16975">
        <ele>534.6</ele>
        <time>2010-01-01T00:00:00Z</time>
      </trkpt>
      <trkpt lat="48.42772" lon="7.16928">
        <ele>538.3</ele>
        <time>2010-01-01T00:00:00Z</time>
      </trkpt>
      <trkpt lat="48.42763" lon="7.16899">
        <ele>541.6</ele>
        <time>2010-01-01T00:00:00Z</time>
      </trkpt>
      <trkpt lat="48.42758" lon="7.16883">
        <ele>543.1</ele>
        <time>2010-01-01T00:00:00Z</time>
      </trkpt>
      <trkpt lat="48.42743" lon="7.16878">
        <ele>545.3</ele>
        <time>2010-01-01T00:00:00Z</time>
      </trkpt>
      <trkpt lat="48.42737" lon="7.16875">
        <ele>546.1</ele>
        <time>2010-01-01T00:00:00Z</time>
      </trkpt>
      <trkpt lat="48.42723" lon="7.16868">
        <ele>547.9</ele>
        <time>2010-01-01T00:00:00Z</time>
      </trkpt>
      <trkpt lat="48.42679" lon="7.1685">
        <ele>553.8</ele>
        <time>2010-01-01T00:00:00Z</time>
      </trkpt>
      <trkpt lat="48.42672" lon="7.1685">
        <ele>554.8</ele>
        <time>2010-01-01T00:00:00Z</time>
      </trkpt>
      <trkpt lat="48.42656" lon="7.16851">
        <ele>557.2</ele>
        <time>2010-01-01T00:00:00Z</time>
      </trkpt>
      <trkpt lat="48.42645" lon="7.16851">
        <ele>558.8</ele>
        <time>2010-01-01T00:00:00Z</time>
      </trkpt>
      <trkpt lat="48.42636" lon="7.16849">
        <ele>559.8</ele>
        <time>2010-01-01T00:00:00Z</time>
      </trkpt>
      <trkpt lat="48.42627" lon="7.16846">
        <ele>560.5</ele>
        <time>2010-01-01T00:00:00Z</time>
      </trkpt>
      <trkpt lat="48.42617" lon="7.1684">
        <ele>561</ele>
        <time>2010-01-01T00:00:00Z</time>
      </trkpt>
      <trkpt lat="48.42606" lon="7.16831">
        <ele>561.5</ele>
        <time>2010-01-01T00:00:00Z</time>
      </trkpt>
      <trkpt lat="48.42595" lon="7.16823">
        <ele>562.4</ele>
        <time>2010-01-01T00:00:00Z</time>
      </trkpt>
      <trkpt lat="48.42585" lon="7.16819">
        <ele>563.3</ele>
        <time>2010-01-01T00:00:00Z</time>
      </trkpt>
      <trkpt lat="48.42575" lon="7.16815">
        <ele>563.9</ele>
        <time>2010-01-01T00:00:00Z</time>
      </trkpt>
      <trkpt lat="48.42564" lon="7.16813">
        <ele>564.7</ele>
        <time>2010-01-01T00:00:00Z</time>
      </trkpt>
      <trkpt lat="48.42555" lon="7.16813">
        <ele>565.3</ele>
        <time>2010-01-01T00:00:00Z</time>
      </trkpt>
      <trkpt lat="48.42548" lon="7.16811">
        <ele>565.7</ele>
        <time>2010-01-01T00:00:00Z</time>
      </trkpt>
      <trkpt lat="48.42541" lon="7.16807">
        <ele>566.1</ele>
        <time>2010-01-01T00:00:00Z</time>
      </trkpt>
      <trkpt lat="48.42527" lon="7.16796">
        <ele>566.3</ele>
        <time>2010-01-01T00:00:00Z</time>
      </trkpt>
      <trkpt lat="48.42513" lon="7.16783">
        <ele>566.3</ele>
        <time>2010-01-01T00:00:00Z</time>
      </trkpt>
      <trkpt lat="48.42491" lon="7.16767">
        <ele>566.6</ele>
        <time>2010-01-01T00:00:00Z</time>
      </trkpt>
      <trkpt lat="48.42469" lon="7.16748">
        <ele>566.1</ele>
        <time>2010-01-01T00:00:00Z</time>
      </trkpt>
      <trkpt lat="48.42449" lon="7.1673">
        <ele>566.2</ele>
        <time>2010-01-01T00:00:00Z</time>
      </trkpt>
      <trkpt lat="48.42435" lon="7.16719">
        <ele>565.6</ele>
        <time>2010-01-01T00:00:00Z</time>
      </trkpt>
      <trkpt lat="48.42419" lon="7.16709">
        <ele>565</ele>
        <time>2010-01-01T00:00:00Z</time>
      </trkpt>
      <trkpt lat="48.42404" lon="7.167">
        <ele>564.2</ele>
        <time>2010-01-01T00:00:00Z</time>
      </trkpt>
      <trkpt lat="48.42396" lon="7.16696">
        <ele>563.6</ele>
        <time>2010-01-01T00:00:00Z</time>
      </trkpt>
      <trkpt lat="48.42382" lon="7.1669">
        <ele>562.8</ele>
        <time>2010-01-01T00:00:00Z</time>
      </trkpt>
      <trkpt lat="48.42375" lon="7.16688">
        <ele>562.5</ele>
        <time>2010-01-01T00:00:00Z</time>
      </trkpt>
      <trkpt lat="48.42335" lon="7.16667">
        <ele>560.1</ele>
        <time>2010-01-01T00:00:00Z</time>
      </trkpt>
      <trkpt lat="48.42334" lon="7.16667">
        <ele>560.1</ele>
        <time>2010-01-01T00:00:00Z</time>
      </trkpt>
      <trkpt lat="48.42317" lon="7.16661">
        <ele>558.6</ele>
        <time>2010-01-01T00:00:00Z</time>
      </trkpt>
      <trkpt lat="48.42298" lon="7.16654">
        <ele>557.3</ele>
        <time>2010-01-01T00:00:00Z</time>
      </trkpt>
      <trkpt lat="48.42254" lon="7.16636">
        <ele>554.2</ele>
        <time>2010-01-01T00:00:00Z</time>
      </trkpt>
      <trkpt lat="48.42232" lon="7.16626">
        <ele>553.5</ele>
        <time>2010-01-01T00:00:00Z</time>
      </trkpt>
      <trkpt lat="48.42225" lon="7.16628">
        <ele>553.6</ele>
        <time>2010-01-01T00:00:00Z</time>
      </trkpt>
      <trkpt lat="48.42223" lon="7.16628">
        <ele>553.6</ele>
        <time>2010-01-01T00:00:00Z</time>
      </trkpt>
      <trkpt lat="48.4221" lon="7.16631">
        <ele>553.4</ele>
        <time>2010-01-01T00:00:00Z</time>
      </trkpt>
      <trkpt lat="48.42178" lon="7.16637">
        <ele>552.4</ele>
        <time>2010-01-01T00:00:00Z</time>
      </trkpt>
      <trkpt lat="48.42172" lon="7.16638">
        <ele>552.2</ele>
        <time>2010-01-01T00:00:00Z</time>
      </trkpt>
      <trkpt lat="48.42157" lon="7.16641">
        <ele>552</ele>
        <time>2010-01-01T00:00:00Z</time>
      </trkpt>
      <trkpt lat="48.42153" lon="7.16642">
        <ele>551.9</ele>
        <time>2010-01-01T00:00:00Z</time>
      </trkpt>
      <trkpt lat="48.42143" lon="7.16644">
        <ele>551.8</ele>
        <time>2010-01-01T00:00:00Z</time>
      </trkpt>
      <trkpt lat="48.42125" lon="7.16646">
        <ele>551.2</ele>
        <time>2010-01-01T00:00:00Z</time>
      </trkpt>
      <trkpt lat="48.42115" lon="7.16648">
        <ele>550.8</ele>
        <time>2010-01-01T00:00:00Z</time>
      </trkpt>
      <trkpt lat="48.42102" lon="7.16649">
        <ele>550.8</ele>
        <time>2010-01-01T00:00:00Z</time>
      </trkpt>
      <trkpt lat="48.42093" lon="7.16651">
        <ele>550.9</ele>
        <time>2010-01-01T00:00:00Z</time>
      </trkpt>
      <trkpt lat="48.42087" lon="7.16647">
        <ele>551.3</ele>
        <time>2010-01-01T00:00:00Z</time>
      </trkpt>
      <trkpt lat="48.42083" lon="7.16646">
        <ele>551.5</ele>
        <time>2010-01-01T00:00:00Z</time>
      </trkpt>
      <trkpt lat="48.4208" lon="7.16648">
        <ele>551.4</ele>
        <time>2010-01-01T00:00:00Z</time>
      </trkpt>
      <trkpt lat="48.42073" lon="7.16652">
        <ele>551.2</ele>
        <time>2010-01-01T00:00:00Z</time>
      </trkpt>
      <trkpt lat="48.42066" lon="7.16656">
        <ele>551.2</ele>
        <time>2010-01-01T00:00:00Z</time>
      </trkpt>
    </trkseg>
  </trk>
</gpx>